Location: Boiro
(42.6475°N, 8.8834°W)
Time: 08:23:36
(UTC+02:00)

NANOSAT C BR1 - Pass Details

Date: 18 August 2022
Orbit: 582 x 600 km, 98.0° (Epoch: 25 September)

Event Time Altitude Azimuth Distance (km) Brightness Sun altitude
Rises 05:19:22 0° 6° (N) 2,840 ? -23.3°
Reaches altitude 10° 05:21:37 10° 359° (N) 1,930 ? -23.0°
Enters shadow 05:25:14 42° 302° (WNW) 852 ? -22.5°
